Location: Le Tau
(48.7293°N, 3.0338°E)
Time: 18:28:10
(UTC+00:00)

Daily predictions for brighter satellites

Satellite Brightness Start Highest point End
(mag) Time Altitude Azimuth Time Altitude Azimuth Time Altitude Azimuth
BREEZE-M DEB (TANK) 3.6 18:19:53 10° WSW 18:23:01 72° SSE 18:32:33 10° ENE
USA 281 3.2 18:19:32 10° NNE 18:26:07 67° ESE 18:32:38 10° SSW
PAYLOAD B 4.3 18:23:39 10° SSE 18:29:12 88° ENE 18:34:49 10° NNW
Cosmos 1727 Rocket 4.1 18:23:03 10° S 18:29:14 59° E 18:35:23 10° NNE
CENTAUR R/B 3.4 18:21:55 10° NW 18:29:46 60° NE 18:38:37 10° ESE
USA 306 3.8 18:26:33 10° WNW 18:30:05 40° SW 18:33:36 10° SSE
COSMO-SKYMED 1 3.5 18:27:45 10° N 18:32:01 55° WNW 18:36:15 10° SSW
Cosmos 2056 Rocket 3.7 18:28:19 10° S 18:33:11 45° ESE 18:38:02 10° NE
SL-8 R/B 4.2 18:31:42 10° W 18:36:23 55° SSW 18:41:05 10° SE
Okean 3 3.6 18:38:20 10° N 18:42:29 55° ENE 18:46:37 10° SSE
Okean 1-7 3.1 18:39:19 10° N 18:43:39 56° ENE 18:47:55 10° SSE
Cosmos 1666 Rocket 4.4 18:41:00 10° SSW 18:45:19 57° WNW 18:49:37 10° N
Cosmos 1933 Rocket 3.9 18:41:54 10° SSE 18:45:59 43° E 18:50:06 10° NNE
Cosmos 1624 Rocket 4.1 18:41:21 10° S 18:46:32 59° ESE 18:51:47 10° NNE
Iridium 4 Rocket 4.1 18:43:12 10° NNE 18:46:40 24° ENE 18:50:05 10° SE
Cosmos 2098 Rocket 4.4 18:43:16 10° SSE 18:48:04 35° E 18:53:43 10° NNE
Meteor 1-11 Rocket 4.4 18:43:41 10° SSW 18:49:33 63° WNW 18:55:21 10° N
CSL-04 Rocket 4.2 18:44:26 10° SE 18:49:38 43° ENE 18:54:50 10° N
Cosmos 2322 Rocket 4.1 18:45:30 10° NW 18:50:33 33° WSW 18:55:34 10° SSW
In-Cosmos 22 4.2 18:45:00 10° N 18:50:39 77° ENE 18:56:23 10° SSE
Exosat Rocket 3.8 18:47:06 10° S 18:52:07 57° ESE 18:58:27 10° NNE
KORONAS-FOTON 3.7 18:49:02 10° N 18:52:49 66° E 18:56:37 10° SSE
Cosmos 1842 3.8 18:49:11 10° NNW 18:52:58 61° W 18:56:43 10° S
Cosmos 2237 Rocket 3.2 18:48:09 10° NNW 18:53:04 29° NE 18:57:25 12° ESE
Landsat 7 4.1 18:49:03 10° SE 18:53:32 46° ENE 18:58:03 10° N
Cosmos 1420 Rocket 4.0 18:48:34 10° S 18:53:43 63° ESE 18:58:53 10° NNE
GEOS 3 Rocket 3.7 18:49:14 10° NE 18:54:40 79° SE 19:00:03 10° SW
Cosmos 1869 Rocket 4.4 18:51:48 10° SSE 18:55:31 29° E 18:59:15 10° NNE
Meteor 1-21 4.2 18:50:14 10° N 18:55:49 64° ENE 19:01:25 10° SSE
Cosmos 1459 Rocket 3.9 18:50:01 10° N 18:56:05 69° E 19:02:07 10° SSE
CZ-4C R/B 4.1 18:52:33 10° NW 18:57:39 25° NNE 19:03:39 10° ENE
USA 305 4.1 18:56:08 10° WNW 18:59:34 33° SW 19:03:00 10° SSE
Cosmos 1725 Rocket 4.2 18:57:27 10° N 19:03:28 51° ENE 19:09:27 10° SSE
USA 307 4.3 19:00:21 10° WNW 19:03:42 29° SW 19:07:02 10° SSE
Cosmos 1633 Rocket 4.4 19:00:10 10° SSW 19:04:23 45° WNW 19:08:38 10° N
Resurs 01 Rocket 2.7 19:03:03 14° ESE 19:05:56 26° ENE 19:09:38 10° N
CZ-4B R/B 3.8 19:01:50 10° S 19:07:27 66° WSW 19:13:05 10° NNW
Cosmos 2322 3.7 19:02:06 10° NNW 19:07:47 87° WSW 19:13:27 10° SSE
Lacrosse 5 rocket 3.3 19:06:24 10° SSE 19:07:26 12° SE 19:07:26 12° SE
Cosmos 1975 2.8 19:05:56 10° S 19:09:48 59° E 19:13:44 10° NNE
Cosmos 1707 3.1 19:07:05 10° NNW 19:10:52 66° W 19:14:36 10° S
Cosmos 1452 Rocket 4.2 19:06:22 10° SSE 19:10:58 32° E 19:15:37 10° NE
Cosmos 676 Rocket 4.1 19:05:47 10° NNW 19:11:01 82° WSW 19:16:16 10° SSE
SJ-6B 2.7 19:08:04 10° SSE 19:12:00 79° ENE 19:15:52 10° N
Cosmos 1805 3.9 19:10:14 10° SSE 19:13:38 31° E 19:17:03 10° NNE
Cosmos 1980 4.3 19:09:01 10° NNW 19:14:23 41° NE 19:18:13 18° ESE
Cosmos 2333 Rocket 3.5 19:09:49 10° NW 19:15:15 43° WSW 19:20:39 10° S
USA 215 3.9 19:10:13 10° NE 19:16:35 56° NNW 19:22:56 10° W
Cosmos 2219 Rocket 2.8 19:11:54 10° NW 19:17:31 60° WSW 19:23:04 10° S
Cosmos 1802 Rocket 4.0 19:11:46 10° N 19:18:02 79° E 19:24:22 10° SSE
ISS -3.3 19:16:01 10° W 19:19:21 58° N 19:21:37 18° ENE
Cosmos 1703 Rocket 3.8 19:15:46 10° NNW 19:20:15 75° W 19:24:39 10° S
SL-27 R/B 2.3 19:17:18 10° SSW 19:20:36 80° WNW 19:23:53 10° NNE
IRS-1C Rocket 4.4 19:16:25 12° SE 19:21:06 49° ENE 19:26:11 10° N
IGS 5A 4.0 19:17:16 10° S 19:21:20 60° W 19:25:26 10° NNW
Cosmos 1674 3.2 19:18:18 10° NNW 19:21:58 60° W 19:25:38 10° S
CSL-04 Debris 4.1 19:19:42 10° SSE 19:25:06 85° ENE 19:30:35 10° NNW
Cosmos 1741 Rocket 4.1 19:20:48 10° NNW 19:25:56 55° ENE 19:29:30 19° SE
Resurs 1-3 3.5 19:21:44 10° SSE 19:26:06 82° ENE 19:30:30 10° NNW
SL-14 R/B 3.5 19:22:44 10° N 19:26:29 46° ENE 19:28:35 22° SE
COSMOS 2428 2.8 19:20:49 10° NNW 19:26:34 82° WSW 19:32:18 10° SSE
USA 186 2.0 19:27:07 10° S 19:30:10 67° WSW 19:33:17 10° NNW
Spot 1 4.5 19:25:36 10° NNE 19:30:32 84° WNW 19:35:37 10° SSW
BREEZE M DEB (TANK) 1.6 19:28:50 10° W 19:31:22 83° N 19:31:58 43° ENE
Okean-O 2.5 19:29:27 13° SSE 19:33:22 71° ENE 19:37:47 10° N
Cosmos 2016 Rocket 3.9 19:27:59 10° N 19:34:07 86° E 19:40:15 10° S
Cosmos 968 Rocket 4.3 19:30:47 10° N 19:35:26 32° NE 19:37:18 25° E
Cosmos 2297 Rocket 2.8 19:30:50 10° SSE 19:35:43 31° ESE 19:40:38 10° NE
Cosmos 2123 Rocket 3.9 19:31:12 10° S 19:37:28 81° E 19:43:50 10° N
Cosmos 1733 Rocket 3.8 19:38:38 29° E 19:38:44 29° E 19:42:28 10° NNE
Cosmos 1726 1.9 19:35:49 10° S 19:39:15 59° E 19:42:44 10° NNE
CZ-4 R/B 3.3 19:36:32 10° SSW 19:39:52 28° W 19:43:16 10° NW
Cosmos 2221 Rocket 4.4 19:38:47 10° N 19:42:45 31° ENE 19:43:19 30° E
Okean O Rocket 3.2 19:39:29 10° SSW 19:43:34 36° W 19:47:39 10° NNW
NOSS 0 Rocket 3.9 19:37:46 10° NNW 19:44:02 90° ENE 19:48:33 19° SSE
CARTOSAT-1 4.1 19:43:21 32° E 19:44:21 37° ENE 19:48:20 10° N
SL-08 R/B 4.5 19:38:08 10° N 19:44:34 88° E 19:50:52 10° S
Cosmos 2242 Rocket 3.9 19:40:43 10° NNW 19:45:18 72° W 19:49:50 10° S
ERS-1 Rocket 4.4 19:45:24 19° ENE 19:45:59 20° ENE 19:49:31 10° NNE
Cosmos 1378 Rocket 4.4 19:44:07 10° N 19:48:02 30° ENE 19:48:15 30° ENE
Ariane Rocket 3.9 19:47:24 28° E 19:48:32 31° ENE 19:52:58 10° N
Helios 1B 4.4 19:45:05 10° NNE 19:49:26 82° ESE 19:53:46 10° SSW
Cosmos 2227 Rocket 3.7 19:53:55 19° ENE 19:53:55 19° ENE 19:56:02 10° NE
Cosmos 1733 3.4 19:49:39 10° SSW 19:53:25 71° W 19:57:12 10° N
Cosmos 1867 3.6 19:50:23 10° SSW 19:55:39 55° ESE 20:00:59 10° NE
Okean 2 3.7 19:55:34 10° NNW 19:59:37 65° W 20:02:24 19° S
SL-16 R/B 3.1 19:56:43 10° NNW 20:01:50 32° NE 20:03:15 29° ENE
SPOT 3 Rocket 4.4 20:03:14 31° ENE 20:03:50 32° ENE 20:08:26 10° N
NOSS 3-2 (A) 4.5 19:59:56 10° NW 20:07:19 61° WSW 20:13:45 19° SSE
NOSS 3-2 (C) 4.1 20:09:49 10° NW 20:17:16 83° SW 20:21:41 32° SSE
H-2A R/B 2.9 20:18:42 48° ENE 20:18:42 48° ENE 20:22:45 10° N
CENTAUR R/B 3.9 20:12:45 10° NW 20:20:41 52° WSW 20:27:29 17° S
SJ 16-02 3.2 20:20:24 10° N 20:22:49 19° NE 20:22:49 19° NE
Cosmos 2233 Rocket 4.4 20:22:54 10° NNW 20:28:56 61° W 20:33:52 16° S
USA 238 DEB 3.9 20:23:27 10° NW 20:30:46 83° SW 20:33:45 42° SSE
USA 238 3.9 20:23:33 10° NW 20:30:52 84° SW 20:33:50 42° SSE
SPOT 1/Viking Rocket 4.3 20:27:33 20° SSW 20:30:59 49° W 20:36:03 10° NNW
Meteor 1-15 Rocket 4.3 20:31:01 55° ESE 20:31:13 56° E 20:36:57 10° NNE
Cosmos 1766 3.8 20:32:37 52° N 20:32:37 52° N 20:35:36 10° N
Meteor 2-15 4.4 20:28:04 10° N 20:34:11 61° ENE 20:35:00 56° ESE
Meteor 2-8 Rocket 4.5 20:29:28 10° N 20:35:32 57° ENE 20:36:09 54° E
Cosmos 2237 Rocket 2.5 20:31:57 10° NW 20:37:31 60° WSW 20:39:15 41° S
Cosmos 1110 Rocket 4.2 20:33:46 10° SSW 20:38:58 68° WNW 20:44:09 10° NNE
Terra 2.8 20:40:22 35° NE 20:40:22 35° NE 20:43:47 10° N
Meteor 1-12 Rocket 4.1 20:39:36 65° ESE 20:40:00 67° E 20:45:42 10° NNE
Cosmos 2034 Rocket 4.3 20:35:21 10° N 20:41:13 45° ENE 20:41:13 45° ENE
Resurs 01 Rocket 2.8 20:40:35 28° SW 20:42:16 38° W 20:46:25 10° NNW
Lacrosse 5 rocket 3.8 20:42:17 10° SW 20:42:54 14° SW 20:42:54 14° SW
CZ-4C R/B 3.3 20:41:06 10° NW 20:47:44 50° NE 20:49:46 41° E
ATLAS CENTAUR R/B 4.1 20:32:30 10° SW 20:48:15 84° NW 20:54:48 14° NE
MetOp-B 4.2 20:50:58 60° SSW 20:51:49 71° WSW 20:57:12 10° NNW
SPOT 5 3.1 20:53:49 61° N 20:53:49 61° N 20:57:50 10° NNW
Meteor 1-24 Rocket 3.7 20:50:19 10° N 20:56:15 78° ENE 20:56:26 77° E
ISS -1.3 20:53:06 10° WNW 20:54:34 23° WNW 20:54:34 23° WNW
Cosmos 1072 Rocket 4.4 20:50:37 10° N 20:57:05 86° E 20:57:58 69° SSE
FALCON 9 R/B 4.0 20:42:20 10° WSW 20:57:31 33° SSW 20:58:48 32° S
USA 215 4.1 20:55:21 23° ENE 20:58:59 43° N 21:05:05 10° WNW
ADEOS Rocket 3.0 21:05:22 71° E 21:05:43 72° ENE 21:12:40 10° NNW
Cosmos 1943 4.4 21:04:51 10° NNW 21:09:15 31° NE 21:09:15 31° NE
Cosmos 968 Rocket 4.4 21:12:28 10° NW 21:17:19 42° WSW 21:17:19 42° WSW
Meteor 2-5 Rocket 4.0 21:13:45 10° NNW 21:19:30 66° W 21:19:35 66° WSW
Cosmos 2297 Rocket 3.0 21:14:05 10° SW 21:19:32 49° NW 21:25:04 10° NNE
ERS-1 Rocket 3.6 21:25:22 52° NW 21:25:22 52° NW 21:29:17 10° NNW
Cosmos 2219 4.4 21:28:49 32° NNE 21:28:49 32° NNE 21:31:46 10° NNE
Cosmos 1464 Rocket 4.2 21:20:22 10° NNW 21:26:39 65° W 21:27:08 63° WSW
Ariane Rocket 4.0 21:27:34 41° W 21:27:34 41° W 21:32:10 10° NNW
Cosmos 2227 Rocket 2.7 21:35:33 57° NW 21:35:33 57° NW 21:40:43 10° NNE
Spot 2 Rocket 4.5 21:39:21 45° NW 21:39:21 45° NW 21:43:13 10° NNW
SL-16 R/B 3.0 21:40:42 10° NW 21:45:08 46° WNW 21:45:08 46° WNW
SJ 16-02 3.8 21:58:12 10° NNW 21:59:43 21° NW 21:59:43 21° NW
ATLAS 3B R/B 3.7 21:55:50 10° NW 22:02:53 41° NNE 22:03:36 40° NE
Terra 4.1 22:19:07 21° NW 22:19:07 21° NW 22:21:10 10° NW
Cosmos 2263 Rocket 4.3 22:30:26 19° NNE 22:30:26 19° NNE 22:31:56 10° NNE
CZ-4C R/B 3.5 22:29:30 10° NW 22:34:55 49° W 22:34:55 49° W
USA 215 3.9 22:42:40 50° NNW 22:42:40 50° NNW 22:47:48 10° NW
ATLAS CENTAUR R/B 4.2 22:53:55 10° W 23:03:58 43° NNW 23:04:24 42° N
ATLAS 2AS CENTAUR R/B 4.2 23:13:02 30° NE 23:13:02 30° NE 23:16:19 10° NE
Cosmos 2344 4.1 23:21:29 10° NW 23:28:51 72° NW 23:28:51 72° NW
